Brookings, SD

11:39 AM CDT on October 14, 2019 (GMT -0500)
Brookings Municipal

Weather History for KBKX - September, 2019

Change the Weather History Date:

Tuesday, September 17, 2019

  Actual Average Record
Temperature  
Mean Temperature 80 °F -  
Max Temperature 86 °F 67 °F 86 °F (2000)
Min Temperature 73 °F 46 °F 42 °F (2006)
Cooling Degree Days 14    
Growing Degree Days 30 (Base 50)    
Moisture  
Dew Point 71 °F    
Average Humidity 80    
Maximum Humidity 96    
Minimum Humidity 61    
Precipitation  
Precipitation 0.20 in - - ()
Sea Level Pressure  
Sea Level Pressure 29.83 in    
Wind  
Wind Speed 20 mph (SSE)    
Max Wind Speed 26 mph    
Max Gust Speed 33 mph    
Visibility 10 miles    
Events Rain , Thunderstorm    
Averages and records for this station are not official NWS values.
T = Trace of Precipitation, MM = Missing Value Source: NWS Daily Summary

Daily Weather History Graph

Daily Weather History Graph

Search for Another Location

Airport or City:

Astronomy

Sep. 17, 2019 Rise Set
Actual Time 7:08 AM CDT 7:34 PM CDT
Civil Twilight 6:39 AM CDT 8:03 PM CDT
Nautical Twilight 6:04 AM CDT 8:37 PM CDT
Astronomical Twilight 5:29 AM CDT 9:12 PM CDT
Moon 9:31 PM CDT (9/17) 10:20 AM CDT (9/17)
Length of Visible Light 13h 24m
Length of Day
12h 25m
Waning Gibbous, 89% of the Moon is Illuminated
Sep 17
Waning Gibbous
Sep 21
Last Quarter
Sep 28
New
Oct 5
First Quarter
Oct 13
Full

Hourly Weather History & Observations

Time (CDT) Temp. Heat Index Dew Point Humidity Pressure Visibility Wind Dir Wind Speed Gust Speed Precip Events Conditions
12:56 AM 75.9 °F - 72.0 °F 87% 29.89 in 10.0 mi South 20.7 mph 28.8 mph N/A   Mostly Cloudy
1:29 AM 73.4 °F - 71.6 °F 94% 29.90 in 4.0 mi South 26.5 mph 31.1 mph 0.03 in Rain , Thunderstorm Thunderstorms and Rain
1:56 AM 73.9 °F - 72.0 °F 93% 29.91 in 10.0 mi SSE 13.8 mph - 0.12 in Rain , Thunderstorm Light Thunderstorms and Rain
2:38 AM 73.4 °F - 71.6 °F 94% 29.88 in 10.0 mi SE 16.1 mph - 0.04 in Rain , Thunderstorm Light Rain
2:56 AM 73.9 °F - 72.0 °F 93% 29.87 in 10.0 mi SE 23.0 mph 27.6 mph 0.05 in Rain Light Rain
3:44 AM 73.4 °F - 71.6 °F 94% 29.85 in 10.0 mi SE 18.4 mph 27.6 mph 0.01 in Thunderstorm Overcast
3:56 AM 73.0 °F - 72.0 °F 96% 29.85 in 7.0 mi SE 21.9 mph 28.8 mph 0.02 in Rain Light Rain
4:56 AM 73.0 °F - 71.1 °F 93% 29.84 in 10.0 mi SSE 13.8 mph 24.2 mph 0.01 in   Mostly Cloudy
5:56 AM 73.9 °F - 70.0 °F 87% 29.83 in 10.0 mi South 23.0 mph 32.2 mph N/A   Mostly Cloudy
6:56 AM 73.9 °F - 69.1 °F 85% 29.83 in 10.0 mi South 19.6 mph 28.8 mph N/A   Overcast
7:56 AM 75.0 °F - 69.1 °F 82% 29.85 in 10.0 mi South 18.4 mph - N/A   Overcast
8:56 AM 75.9 °F - 70.0 °F 82% 29.84 in 10.0 mi South 16.1 mph 27.6 mph N/A   Partly Cloudy
9:56 AM 78.1 °F - 70.0 °F 76% 29.85 in 10.0 mi South 20.7 mph 29.9 mph N/A   Clear
10:56 AM 79.0 °F - 71.1 °F 77% 29.84 in 10.0 mi South 19.6 mph 31.1 mph N/A   Clear
11:56 AM 81.0 °F 84.9 °F 71.1 °F 72% 29.82 in 10.0 mi South 23.0 mph 33.4 mph N/A   Clear
12:56 PM 82.9 °F 87.5 °F 71.1 °F 67% 29.81 in 10.0 mi South 25.3 mph 33.4 mph N/A   Clear
1:56 PM 84.9 °F 90.1 °F 71.1 °F 63% 29.81 in 10.0 mi South 23.0 mph 31.1 mph N/A   Clear
2:56 PM 86.0 °F 91.5 °F 71.1 °F 61% 29.79 in 10.0 mi South 24.2 mph 33.4 mph N/A   Clear
3:56 PM 84.9 °F 90.7 °F 72.0 °F 65% 29.78 in 10.0 mi South 20.7 mph 27.6 mph N/A   Clear
4:56 PM 82.9 °F 87.0 °F 70.0 °F 65% 29.78 in 10.0 mi South 20.7 mph 29.9 mph N/A   Partly Cloudy
5:56 PM 82.9 °F 87.5 °F 71.1 °F 67% 29.78 in 10.0 mi South 18.4 mph 28.8 mph N/A   Clear
6:56 PM 81.0 °F 84.9 °F 71.1 °F 72% 29.78 in 10.0 mi South 18.4 mph 24.2 mph N/A   Clear
7:56 PM 79.0 °F - 71.1 °F 77% 29.79 in 10.0 mi SSE 17.3 mph 23.0 mph N/A   Clear
8:56 PM 78.1 °F - 70.0 °F 76% 29.80 in 10.0 mi SSE 18.4 mph 25.3 mph N/A   Clear
9:56 PM 77.0 °F - 70.0 °F 79% 29.79 in 10.0 mi SSE 17.3 mph 25.3 mph N/A   Clear
10:56 PM 75.9 °F - 70.0 °F 82% 29.79 in 10.0 mi SSE 18.4 mph - N/A   Clear
11:56 PM 75.0 °F - 70.0 °F 84% 29.78 in 10.0 mi SSE 16.1 mph - N/A   Mostly Cloudy